Weather in Karagali

Russia / Astrakhan Oblast     46°15′43″N   47°59′21″E
temp.,
°C
wind,
m/s
gust,
m/s
humid.,
%
clouds,
%
prec.,
mm/h
press.,
hPa
HPBL,
m
29 june, wed
wed2901:00+24wnw71334100 0.0 1010333
04:00+24nw5103598 0.0 1009299
07:00+24ne684498 0.0 1010511
10:00+27ne6537100 0.3 10111046
13:00+28n763596 0.0 10121250
16:00+31n54255 0.0 10112234
19:00+28n64254 0.0 10111562
22:00+23ne34280 0.0 1013120
30 june, thu
thu3001:00+21nne410264 0.0 1013228
04:00+19ne48315 0.0 1014184
07:00+20ene46320 0.0 1015306
10:00+25ne43230 0.0 10151755
13:00+28nnw43184 0.0 10132463
16:00+29nnw43180 0.0 10122489
19:00+28nne42222 0.0 10112327
22:00+21s23490 0.0 101381
1 july, fri
fri101:00+20ssw346078 0.0 101262
04:00+20sw2364100 0.0 101158
07:00+23sw3556100 0.0 1011339
10:00+27wsw5531100 0.0 10112211
13:00+30wsw682571 0.0 10093306
16:00+30sw682279 0.0 10073279
19:00+30wsw472397 0.0 10061962
22:00+25nnw3735100 0.0 1007382
2 july, sat
sat201:00+22nne9114171 0.0 1008731
04:00+18nnw475244 0.0 1009261
07:00+17nnw79460 0.0 1011679
10:00+19nw810320 0.0 10111489
13:00+22nw810305 0.0 10112191
16:00+24wnw89255 0.0 10102524
19:00+23nw8122799 0.0 10092844
22:00+18nw9145224 0.0 10101257
3 july, sun
sun301:00+17nw8146434 0.0 10091361
04:00+18nw9156221 0.1 10091429
07:00+18nw9166754 0.0 10111197
10:00+22nw9134930 0.0 10111703
13:00+27nnw9113389 0.0 10122711
16:00+27n7103170 0.0 10122466
19:00+28nnw69253 0.0 10122603
22:00+24nnw483121 0.0 1013199